TimeCDT,TemperatureF,Dew PointF,Humidity,Sea Level PressureIn,VisibilityMPH,Wind Direction,Wind SpeedMPH,Gust SpeedMPH,PrecipitationIn,Events,Conditions,WindDirDegrees,DateUTC
12:53 AM,54.0,52.0,93,30.06,10.0,Calm,Calm,-,N/A,,Overcast,0,2013-05-05 05:53:00
1:53 AM,51.1,48.9,92,30.05,4.0,Calm,Calm,-,N/A,,Partly Cloudy,0,2013-05-05 06:53:00
2:08 AM,50.0,48.2,94,30.05,1.8,Calm,Calm,-,N/A,,Clear,0,2013-05-05 07:08:00
2:11 AM,48.2,48.2,100,30.05,0.8,Calm,Calm,-,N/A,,Clear,0,2013-05-05 07:11:00
2:28 AM,48.2,48.2,100,30.05,1.2,Calm,Calm,-,N/A,,Clear,0,2013-05-05 07:28:00
2:47 AM,48.2,46.4,93,30.05,0.8,Calm,Calm,-,N/A,,Clear,0,2013-05-05 07:47:00
2:53 AM,48.0,46.9,96,30.05,0.5,Calm,Calm,-,N/A,Fog,Fog,0,2013-05-05 07:53:00
3:19 AM,48.2,46.4,93,30.05,1.2,Calm,Calm,-,N/A,,Clear,0,2013-05-05 08:19:00
3:23 AM,46.4,46.4,100,30.05,3.0,Calm,Calm,-,N/A,,Clear,0,2013-05-05 08:23:00
3:30 AM,46.4,44.6,93,30.05,2.0,Calm,Calm,-,N/A,,Clear,0,2013-05-05 08:30:00
3:42 AM,46.4,44.6,93,30.05,1.0,Calm,Calm,-,N/A,,Mist,0,2013-05-05 08:42:00
3:49 AM,46.4,44.6,93,30.05,0.2,Calm,Calm,-,N/A,Fog,Fog,0,2013-05-05 08:49:00
3:53 AM,46.9,45.0,93,30.05,0.5,Calm,Calm,-,N/A,Fog,Fog,0,2013-05-05 08:53:00
4:30 AM,44.6,44.6,100,30.05,1.2,Calm,Calm,-,N/A,,Clear,0,2013-05-05 09:30:00
4:36 AM,46.4,44.6,93,30.05,0.8,Calm,Calm,-,N/A,,Clear,0,2013-05-05 09:36:00
4:53 AM,45.0,43.0,93,30.06,0.8,Calm,Calm,-,N/A,,Clear,0,2013-05-05 09:53:00
5:00 AM,44.6,42.8,93,30.05,0.5,Calm,Calm,-,N/A,Fog,Fog,0,2013-05-05 10:00:00
5:53 AM,44.1,42.1,93,30.06,0.2,Calm,Calm,-,N/A,Fog,Fog,0,2013-05-05 10:53:00
6:16 AM,46.4,44.6,93,30.06,1.0,Calm,Calm,-,N/A,,Clear,0,2013-05-05 11:16:00
6:19 AM,46.4,44.6,93,30.06,2.0,Calm,Calm,-,N/A,,Clear,0,2013-05-05 11:19:00
6:34 AM,46.4,44.6,93,30.06,1.5,Calm,Calm,-,N/A,,Clear,0,2013-05-05 11:34:00
6:42 AM,46.4,44.6,93,30.07,2.5,Calm,Calm,-,N/A,,Clear,0,2013-05-05 11:42:00
6:53 AM,46.9,46.0,97,30.07,2.5,Calm,Calm,-,N/A,,Clear,0,2013-05-05 11:53:00
7:04 AM,48.2,48.2,100,30.07,4.0,Calm,Calm,-,N/A,,Clear,0,2013-05-05 12:04:00
7:53 AM,52.0,50.0,93,30.08,10.0,Calm,Calm,-,N/A,,Clear,0,2013-05-05 12:53:00
8:53 AM,57.9,48.0,70,30.08,10.0,ENE,3.5,-,N/A,,Clear,70,2013-05-05 13:53:00
9:53 AM,64.0,48.9,58,30.08,10.0,Variable,3.5,-,N/A,,Clear,0,2013-05-05 14:53:00
10:53 AM,68.0,48.0,49,30.07,10.0,East,3.5,-,N/A,,Clear,100,2013-05-05 15:53:00
11:53 AM,71.1,48.0,44,30.05,10.0,Variable,3.5,-,N/A,,Clear,0,2013-05-05 16:53:00
1:53 PM,75.0,41.0,29,30.02,10.0,North,8.1,-,N/A,,Clear,10,2013-05-05 18:53:00
2:53 PM,77.0,43.0,30,30.01,10.0,NNE,8.1,-,N/A,,Clear,30,2013-05-05 19:53:00
3:53 PM,77.0,34.0,21,29.99,10.0,ENE,6.9,-,N/A,,Clear,70,2013-05-05 20:53:00
4:53 PM,75.9,41.0,29,30.00,10.0,Variable,5.8,-,N/A,,Partly Cloudy,0,2013-05-05 21:53:00
5:53 PM,75.9,43.0,31,29.99,10.0,North,6.9,-,N/A,,Scattered Clouds,10,2013-05-05 22:53:00
7:53 PM,68.0,45.0,43,30.01,10.0,Calm,Calm,-,N/A,,Clear,0,2013-05-06 00:53:00
8:53 PM,63.0,46.9,56,30.02,10.0,Calm,Calm,-,N/A,,Clear,0,2013-05-06 01:53:00
9:53 PM,57.0,48.9,74,30.04,10.0,Calm,Calm,-,N/A,,Clear,0,2013-05-06 02:53:00
10:53 PM,53.1,48.0,83,30.04,10.0,Calm,Calm,-,N/A,,Clear,0,2013-05-06 03:53:00
11:53 PM,51.1,46.9,86,30.04,10.0,Calm,Calm,-,N/A,,Clear,0,2013-05-06 04:53:00